Weather History for LIRN - January, 2013

Change the Weather History Date:

Friday, January 25, 2013

  Actual Average Record
Temperature  
Mean Temperature 48 °F -  
Max Temperature 53 °F 56 °F 66 °F (2001)
Min Temperature 42 °F 40 °F 26 °F (2004)
Degree Days  
Heating Degree Days 18    
Moisture  
Dew Point 38 °F    
Average Humidity 70    
Maximum Humidity 93    
Minimum Humidity 51    
Precipitation  
Precipitation 0.00 in 0.13 in - ()
Sea Level Pressure  
Sea Level Pressure 29.48 in    
Wind  
Wind Speed 7 mph ()    
Max Wind Speed 18 mph    
Max Gust Speed -    
Visibility 6.2 miles    
Events      
Averages and records for this station are not official NWS values.
T = Trace of Precipitation, MM = Missing Value Source: Averaged Metar Reports

Daily Weather History Graph

Daily Weather History Graph

Search for Another Location

Airport or City:

Trip Planner

Search our weather history database for the weather conditions in past years. The results will help you decide how hot, cold, wet, or windy it might be!

Date:

Astronomy

Jan. 25, 2013 Rise Set
Actual Time 7:19 AM CET 5:11 PM CET
Civil Twilight 6:49 AM CET 5:41 PM CET
Nautical Twilight 6:16 AM CET 6:14 PM CET
Astronomical Twilight 5:44 AM CET 6:46 PM CET
Moon 3:52 PM CET (1/25) 5:47 AM CET (1/25)
Length of Visible Light 10h 51m
Length of Day
9h 52m
Waxing Gibbous, 97% of the Moon is Illuminated
Jan 25
Waxing Gibbous
Jan 27
Full
Feb 3
Last Quarter
Feb 10
New
Feb 17
First Quarter

Hourly Weather History & Observations

Time (CET) Temp. Windchill Dew Point Humidity Pressure Visibility Wind Dir Wind Speed Gust Speed Precip Events Conditions
12:20 AM 44.6 °F 42.2 °F 42.8 °F 93% 29.44 in 6.2 mi North 4.6 mph - N/A   Mostly Cloudy
12:50 AM 44.6 °F 43.1 °F 42.8 °F 93% 29.44 in 6.2 mi North 3.5 mph - N/A   Mostly Cloudy
1:20 AM 44.6 °F 43.1 °F 42.8 °F 93% 29.42 in 6.2 mi NNE 3.5 mph - N/A   Mostly Cloudy
1:50 AM 44.6 °F 43.1 °F 42.8 °F 93% 29.42 in 6.2 mi NE 3.5 mph - N/A   Mostly Cloudy
2:20 AM 44.6 °F 43.1 °F 42.8 °F 93% 29.42 in 6.2 mi East 3.5 mph - N/A   Mostly Cloudy
2:50 AM 42.8 °F - 41.0 °F 93% 29.42 in 6.2 mi Variable 2.3 mph - N/A   Mostly Cloudy
3:20 AM 42.8 °F - 41.0 °F 93% 29.42 in - North - - N/A   Unknown
3:50 AM 44.6 °F 42.2 °F 42.8 °F 93% 29.42 in 6.2 mi NNW 4.6 mph - N/A   Mostly Cloudy
4:20 AM 44.6 °F 41.4 °F 41.0 °F 87% 29.42 in 6.2 mi NNE 5.8 mph - N/A   Mostly Cloudy
4:50 AM 42.8 °F 40.1 °F 41.0 °F 93% 29.42 in 6.2 mi NNE 4.6 mph - N/A   Mostly Cloudy
5:20 AM 44.6 °F 41.4 °F 41.0 °F 87% 29.42 in 6.2 mi NNE 5.8 mph - N/A   Mostly Cloudy
5:50 AM 44.6 °F 40.2 °F 41.0 °F 87% 29.42 in 6.2 mi NE 8.1 mph - N/A   Mostly Cloudy
6:20 AM 46.4 °F 41.9 °F 41.0 °F 81% 29.42 in 6.2 mi NE 9.2 mph - N/A   Mostly Cloudy
6:50 AM 46.4 °F 41.5 °F 39.2 °F 76% 29.42 in 6.2 mi NE 10.4 mph - N/A   Mostly Cloudy
7:20 AM 46.4 °F 41.9 °F 39.2 °F 76% 29.42 in 6.2 mi NE 9.2 mph - N/A   Mostly Cloudy
7:50 AM 46.4 °F 41.5 °F 37.4 °F 71% 29.42 in 6.2 mi NNE 10.4 mph - N/A   Scattered Clouds
8:20 AM 46.4 °F 41.1 °F 37.4 °F 71% 29.44 in 6.2 mi NE 11.5 mph - N/A   Scattered Clouds
8:50 AM 48.2 °F - 37.4 °F 66% 29.44 in 6.2 mi ENE 10.4 mph - N/A   Scattered Clouds
9:20 AM 50.0 °F - 39.2 °F 66% 29.44 in 6.2 mi NE 12.7 mph - N/A   Partly Cloudy
9:50 AM 50.0 °F - 37.4 °F 62% 29.44 in 6.2 mi ENE 12.7 mph - N/A   Partly Cloudy
10:20 AM 50.0 °F - 37.4 °F 62% 29.47 in 6.2 mi ENE 10.4 mph - N/A   Partly Cloudy
10:50 AM 50.0 °F - 37.4 °F 62% 29.47 in 6.2 mi ENE 12.7 mph - N/A   Partly Cloudy
11:20 AM 51.8 °F - 39.2 °F 62% 29.47 in 6.2 mi NE 15.0 mph - N/A   Partly Cloudy
11:50 AM 51.8 °F - 39.2 °F 62% 29.44 in - NE 17.3 mph - N/A   Clear
12:20 PM 53.6 °F - 37.4 °F 54% 29.44 in - NE 18.4 mph - N/A   Clear
12:50 PM 53.6 °F - 37.4 °F 54% 29.44 in - NE 17.3 mph - N/A   Clear
1:20 PM 53.6 °F - 37.4 °F 54% 29.44 in - NE 12.7 mph - N/A   Clear
1:50 PM 53.6 °F - 37.4 °F 54% 29.44 in - NE 13.8 mph - N/A   Clear
2:20 PM 53.6 °F - 35.6 °F 51% 29.44 in - ENE 10.4 mph - N/A   Clear
2:50 PM 53.6 °F - 35.6 °F 51% 29.47 in - ENE 13.8 mph - N/A   Clear
3:20 PM 51.8 °F - 35.6 °F 54% 29.47 in - ENE 12.7 mph - N/A   Clear
3:50 PM 51.8 °F - 35.6 °F 54% 29.47 in - NE 10.4 mph - N/A   Clear
4:20 PM 51.8 °F - 35.6 °F 54% 29.47 in - ENE 11.5 mph - N/A   Clear
4:50 PM 50.0 °F - 35.6 °F 58% 29.50 in 6.2 mi ENE 10.4 mph - N/A   Partly Cloudy
5:20 PM 50.0 °F - 35.6 °F 58% 29.50 in 6.2 mi NE 10.4 mph - N/A   Partly Cloudy
5:50 PM 48.2 °F - 35.6 °F 62% 29.53 in 6.2 mi NE 9.2 mph - N/A   Partly Cloudy
6:20 PM 48.2 °F - 37.4 °F 66% 29.53 in 6.2 mi NE 6.9 mph - N/A   Partly Cloudy
6:50 PM 46.4 °F 42.4 °F 35.6 °F 66% 29.53 in - NNE 8.1 mph - N/A   Clear
7:20 PM 46.4 °F 42.4 °F 35.6 °F 66% 29.56 in - NE 8.1 mph - N/A   Clear
7:50 PM 44.6 °F 41.4 °F 35.6 °F 71% 29.56 in - NE 5.8 mph - N/A   Clear
8:20 PM 46.4 °F 43.5 °F 35.6 °F 66% 29.56 in - NE 5.8 mph - N/A   Clear
8:50 PM 46.4 °F 42.9 °F 35.6 °F 66% 29.59 in - NNE 6.9 mph - N/A   Clear
9:20 PM 44.6 °F 41.4 °F 33.8 °F 66% 29.59 in - NNE 5.8 mph - N/A   Clear
9:50 PM 44.6 °F 40.7 °F 35.6 °F 71% 29.59 in - NNE 6.9 mph - N/A   Clear
10:20 PM 44.6 °F 40.7 °F 33.8 °F 66% 29.59 in - NE 6.9 mph - N/A   Clear
10:50 PM 46.4 °F 40.4 °F 33.8 °F 62% 29.59 in 6.2 mi NNE 13.8 mph - N/A   Partly Cloudy
11:20 PM 46.4 °F 41.9 °F 33.8 °F 62% 29.59 in - NE 9.2 mph - N/A   Clear
11:50 PM 44.6 °F 40.7 °F 33.8 °F 66% 29.62 in - North 6.9 mph - N/A   Clear